ヴィルト第4彗星

116P/Wild 4 (2009)

English version
Home page
Total 6,336 html files since Dec. 4, 1995
Updated on November 9, 2008

---------------------------------------------------------------------

・ プロフィール

・ 写真集

・ 軌道要素

The following orbital elements are taken from MPC 58120:

Epoch 2009 July 28.0 TT = JDT 2455040.5
T 2009 July 18.9616 TT                                  MPC
q   2.174922             (2000.0)            P               Q
n   0.1519803      Peri.  173.5993      -0.9674923      +0.2518873
a   3.477586       Node    21.0319      -0.2347364      -0.8611295
e   0.374589       Incl.    3.6128      -0.0941140      -0.4415981
P   6.49
From 817 observations 2001-2006, mean residual 0".7.

・ 星図

・ 光度変化

        m1 = 3.0 + 5 logΔ + 23.0 log r

---------------------------------------------------------------------

軌道要素はMPCのEphemerides and Orbital Elementsに掲載されたものです。
星図は StellaNavigator Ver.2.0 for Windows (アストロアーツ 編著 / アスキー出版局刊) で作成したものです。
光度グラフはComet for Windowsで作成したものです。

---------------------------------------------------------------------

Copyright(C) 1995-2008 Seiichi Yoshida (comet@aerith.net). All rights reserved.